WOODBINE - NJ NJ-MESONET current weather conditions

sailwx.info

Wind from 014 at 4 knots gusting 8

Air temperature -5.6° C
Dewpoint -17.2° C

Last reported at 2020-Jan-21 06:05 UTC.
Time now 2020-Jan-21 06:34 UTC

Location: N 39°13' W 074°48'.
View on Google Maps.

See reports from other nearby stations

  
Tides and Currents Weather Stations Pressure Air Temp Water Temp Dewpoint Dewpoint Depression Visibility Wind Speed Wind Dir Waves Ship Positions
date/time (UTC)wind fromknots sea level pressurealtimeterstation pressurevisibilityair tempwater tempwave heightnotes
2020-Jan-21 06:05 014 4 gusting 8 -5.6
2020-Jan-21 06:00 008 7 gusting 9 -5.6
2020-Jan-21 05:55 012 7 gusting 13 -5.0
2020-Jan-21 05:50 009 4 gusting 11 -5.6
2020-Jan-21 05:45 049 8 gusting 12 -5.0
2020-Jan-21 05:40 020 6 gusting 13 -5.0
2020-Jan-21 05:35 014 7 gusting 10 -5.6
2020-Jan-21 05:30 008 6 gusting 9 -5.6
2020-Jan-21 05:25 003 7 gusting 10 -5.0
2020-Jan-21 05:20 354 7 gusting 10 -5.0
2020-Jan-21 05:15 354 8 gusting 10 -5.0
2020-Jan-21 05:10 348 5 gusting 11 -5.0
2020-Jan-21 05:05 351 7 gusting 9 -5.6
2020-Jan-21 05:00 347 4 gusting 9 -5.6
2020-Jan-21 04:55 352 7 gusting 9 -5.6
2020-Jan-21 04:50 350 6 gusting 8 -5.6
2020-Jan-21 04:45 355 5 gusting 9 -5.6
2020-Jan-21 04:40 348 4 gusting 7 -5.6
2020-Jan-21 04:35 -5.6
2020-Jan-21 04:30 345 5 gusting 7 -5.6
2020-Jan-21 04:25 343 5 gusting 6 -5.6
2020-Jan-21 04:20 344 5 gusting 7 -5.6
2020-Jan-21 04:15 349 5 gusting 9 -5.6
2020-Jan-21 04:10 020 4 gusting 8 -5.6
2020-Jan-21 04:05 014 6 gusting 7 -6.1
2020-Jan-21 04:00 350 4 gusting 6 -6.1
2020-Jan-21 03:55 354 5 gusting 6 -6.1
2020-Jan-21 03:50 351 6 gusting 6 -6.1
2020-Jan-21 03:45 352 5 gusting 7 -6.1
2020-Jan-21 03:40 343 6 gusting 6 -6.1
2020-Jan-21 03:35 353 5 gusting 6 -6.1
2020-Jan-21 03:30 354 6 gusting 6 -6.1
2020-Jan-21 03:25 348 4 gusting 6 -6.1
2020-Jan-21 03:20 342 4 gusting 5 -6.1
2020-Jan-21 03:15 334 2 gusting 4 -6.1
2020-Jan-21 03:10 352 2 gusting 4 -6.1
2020-Jan-21 03:05 344 2 gusting 4 -6.1
2020-Jan-21 03:00 348 3 gusting 4 -5.6
2020-Jan-21 02:55 342 2 gusting 3 -6.1
2020-Jan-21 02:50 349 2 gusting 4 -5.6
2020-Jan-21 02:45 347 3 gusting 6 -5.6
2020-Jan-21 02:40 -5.6
2020-Jan-21 02:35 353 4 gusting 5 -5.6
2020-Jan-21 02:30 352 2 gusting 4 -5.6
2020-Jan-21 02:25 335 3 gusting 3 -5.6
2020-Jan-21 02:20 335 3 gusting 3 -5.6
2020-Jan-21 02:15 336 3 gusting 4 -5.0
2020-Jan-21 02:10 343 3 gusting 4 -5.0
2020-Jan-21 02:05 338 3 gusting 5 -5.0
2020-Jan-21 02:00 342 3 gusting 6 -5.0
2020-Jan-21 01:55 342 4 gusting 4 -5.0
2020-Jan-21 01:50 343 4 gusting 5 -5.0
2020-Jan-21 01:45 351 4 gusting 6 -4.4
2020-Jan-21 01:40 351 5 gusting 5 -4.4
2020-Jan-21 01:35 -4.4
2020-Jan-21 01:30 346 3 gusting 4 -4.4
2020-Jan-21 01:25 -4.4
2020-Jan-21 01:20 002 4 gusting 5 -4.4
2020-Jan-21 01:15 341 3 gusting 6 -4.4
2020-Jan-21 01:10 345 4 gusting 6 -4.4
2020-Jan-21 01:05 347 3 gusting 6 -4.4
2020-Jan-21 01:00 355 4 gusting 6 -4.4
2020-Jan-21 00:55 343 3 gusting 6 -4.4
2020-Jan-21 00:50 344 4 gusting 5 -3.9
2020-Jan-21 00:45 328 4 gusting 6 -3.9
2020-Jan-21 00:40 329 2 gusting 5 -3.9
2020-Jan-21 00:35 326 3 gusting 7 -3.9
2020-Jan-21 00:30 331 6 gusting 6 -3.9
2020-Jan-21 00:25 336 4 gusting 6 -4.4
2020-Jan-21 00:20 336 5 gusting 6 -3.9
2020-Jan-21 00:15 340 5 gusting 6 -3.9
2020-Jan-21 00:10 342 5 gusting 7 -3.9
2020-Jan-21 00:05 354 7 gusting 7 -3.9
2020-Jan-21 00:00 342 5 gusting 6 -3.3
2020-Jan-20 23:55 340 5 gusting 6 -3.3
2020-Jan-20 23:50 330 6 gusting 6 -3.3
2020-Jan-20 23:45 332 4 gusting 6 -3.3
2020-Jan-20 23:40 341 5 gusting 6 -3.3
2020-Jan-20 23:35 -3.3
2020-Jan-20 23:30 318 4 gusting 7 -3.3
2020-Jan-20 23:25 334 4 gusting 7 -3.3
2020-Jan-20 23:20 332 6 gusting 7 -3.3
2020-Jan-20 23:15 341 6 gusting 6 -3.3
2020-Jan-20 23:10 295 4 gusting 6 -2.8
2020-Jan-20 23:05 320 3 gusting 4 -2.8
2020-Jan-20 23:00 326 2 gusting 5 -2.8
2020-Jan-20 22:55 343 4 gusting 5 -2.8
2020-Jan-20 22:50 321 4 gusting 6 -2.8
2020-Jan-20 22:45 332 4 gusting 7 -2.8
2020-Jan-20 22:40 352 6 gusting 7 -2.8
2020-Jan-20 22:35 352 7 gusting 7 -2.2
2020-Jan-20 22:30 341 5 gusting 8 -2.2
2020-Jan-20 22:25 331 5 gusting 9 -2.2
2020-Jan-20 22:20 324 8 gusting 10 -1.7
2020-Jan-20 22:15 342 7 gusting 9 -2.2
2020-Jan-20 22:10 353 6 gusting 12 -1.7
2020-Jan-20 22:05 339 8 gusting 12 -1.7
2020-Jan-20 22:00 345 8 gusting 13 -1.7
2020-Jan-20 21:55 347 11 gusting 13 -1.1
2020-Jan-20 21:50 343 5 gusting 12 -1.1
2020-Jan-20 21:45 331 5 gusting 13 -0.6
2020-Jan-20 21:40 349 9 gusting 11 -0.6
2020-Jan-20 21:35 341 9 gusting 11 -0.6
2020-Jan-20 21:30 010 6 gusting 9 -0.6
2020-Jan-20 21:25 347 6 gusting 9 -0.0
2020-Jan-20 21:20 346 5 gusting 7 -0.0
2020-Jan-20 21:15 002 7 gusting 11 -0.0
2020-Jan-20 21:10 354 8 gusting 13 -0.0
2020-Jan-20 21:05 328 8 gusting 13 -0.0
2020-Jan-20 21:00 344 13 gusting 14 -0.0
2020-Jan-20 20:55 324 6 gusting 12 0.6
2020-Jan-20 20:50 319 11 gusting 13 -0.0
2020-Jan-20 20:45 340 12 gusting 13 0.6
2020-Jan-20 20:40 351 10 gusting 13 0.6
2020-Jan-20 20:35 349 9 gusting 13 0.6
2020-Jan-20 20:30 009 7 gusting 13 0.6
2020-Jan-20 20:25 352 13 gusting 13 0.6
2020-Jan-20 20:20 298 6 gusting 13 0.6
2020-Jan-20 20:15 338 10 gusting 15 0.6
2020-Jan-20 20:10 326 6 gusting 16 1.1
2020-Jan-20 20:05 350 7 gusting 14 1.1
2020-Jan-20 20:00 319 13 gusting 16 0.6
2020-Jan-20 19:55 336 6 gusting 15 0.6
2020-Jan-20 19:50 344 13 gusting 15 0.6
2020-Jan-20 19:45 343 12 gusting 13 1.1
2020-Jan-20 19:40 330 8 gusting 13 0.6
2020-Jan-20 19:35 328 11 gusting 15 1.1
2020-Jan-20 19:30 297 9 gusting 13 1.1
2020-Jan-20 19:25 007 12 gusting 17 0.6
2020-Jan-20 19:20 330 10 gusting 17 0.6
2020-Jan-20 19:15 347 13 gusting 18 0.6
2020-Jan-20 19:10 018 8 gusting 14 0.6
2020-Jan-20 19:05 016 12 gusting 18 0.6
2020-Jan-20 19:00 015 9 gusting 16 0.6
2020-Jan-20 18:55 338 10 gusting 16 1.1
2020-Jan-20 18:50 354 11 gusting 14 1.1
2020-Jan-20 18:45 013 6 gusting 13 1.1
2020-Jan-20 18:40 025 10 gusting 16 -0.0
2020-Jan-20 18:35 337 12 gusting 15 1.1
2020-Jan-20 18:30 300 14 gusting 16 0.6
2020-Jan-20 18:25 335 12 gusting 13 0.6
2020-Jan-20 18:20 326 11 gusting 15 0.6
2020-Jan-20 18:15 005 10 gusting 16 0.6
2020-Jan-20 18:10 331 12 gusting 17 0.6
2020-Jan-20 18:05 353 12 gusting 17 -0.0
2020-Jan-20 18:00 009 14 gusting 20 -0.6
2020-Jan-20 17:55 017 13 gusting 20 -0.0
2020-Jan-20 17:50 352 14 gusting 16 -0.0
2020-Jan-20 17:45 346 12 gusting 14 0.6
2020-Jan-20 17:40 -0.0
2020-Jan-20 17:35 008 12 gusting 15 -0.0
2020-Jan-20 17:30 007 12 gusting 18 -0.0
2020-Jan-20 17:25 332 13 gusting 19 -0.0
2020-Jan-20 17:20 322 13 gusting 19 -0.0
2020-Jan-20 17:15 334 17 gusting 18 -0.0
2020-Jan-20 17:10 346 8 gusting 18 -0.6
2020-Jan-20 17:05 014 4 gusting 17 -0.6
2020-Jan-20 17:00 351 16 gusting 17 -0.0
2020-Jan-20 16:55 002 10 gusting 14 -0.6
2020-Jan-20 16:50 333 6 gusting 16 -0.0
2020-Jan-20 16:45 347 12 gusting 18 -0.6
2020-Jan-20 16:40 007 9 gusting 14 -1.1
2020-Jan-20 16:35 352 13 gusting 18 -0.6
2020-Jan-20 16:30 027 9 gusting 15 -0.6
2020-Jan-20 16:25 011 11 gusting 18 -1.1
2020-Jan-20 16:20 001 12 gusting 19 -1.1
2020-Jan-20 16:15 346 13 gusting 18 -1.1
2020-Jan-20 16:10 011 13 gusting 18 -1.1
2020-Jan-20 16:05 342 17 gusting 20 -1.1
2020-Jan-20 16:00 348 13 gusting 18 -1.1
2020-Jan-20 15:55 340 16 gusting 16 -1.1
2020-Jan-20 15:50 349 12 gusting 16 -1.1
2020-Jan-20 15:45 008 11 gusting 17 -1.7
2020-Jan-20 15:40 028 10 gusting 18 -1.1
2020-Jan-20 15:35 005 5 gusting 14 -1.1
2020-Jan-20 15:30 351 8 gusting 17 -1.1
2020-Jan-20 15:25 333 15 gusting 19 -1.7
2020-Jan-20 15:20 -1.7
2020-Jan-20 15:15 022 9 gusting 17 -1.7
2020-Jan-20 15:10 -1.7
2020-Jan-20 15:05 325 10 gusting 20 -1.7
2020-Jan-20 15:00 354 8 gusting 17 -2.2
2020-Jan-20 14:55 351 9 gusting 19 -2.2
2020-Jan-20 14:50 349 13 gusting 19 -2.2
2020-Jan-20 14:45 354 12 gusting 19 -2.2
2020-Jan-20 14:40 340 13 gusting 19 -2.2
2020-Jan-20 14:35 344 15 gusting 19 -2.8
2020-Jan-20 14:30 037 11 gusting 19 -2.8
2020-Jan-20 14:25 338 16 gusting 23 -2.8
2020-Jan-20 14:20 337 11 gusting 19 -2.8
2020-Jan-20 14:15 340 13 gusting 14 -2.8
2020-Jan-20 14:10 340 12 gusting 19 -3.3
2020-Jan-20 14:05 348 11 gusting 17 -3.3
2020-Jan-20 14:00 011 13 gusting 16 -3.3
2020-Jan-20 13:55 354 6 gusting 16 -3.3
2020-Jan-20 13:50 324 8 gusting 13 -3.3
2020-Jan-20 13:45 345 10 gusting 13 -3.3
2020-Jan-20 13:40 335 13 gusting 19 -3.9
2020-Jan-20 13:35 344 12 gusting 13 -3.9
2020-Jan-20 13:30 -3.9
2020-Jan-20 13:25 324 6 gusting 13 -3.9
2020-Jan-20 13:20 340 7 gusting 13 -3.9
2020-Jan-20 13:15 338 9 gusting 10 -4.4
2020-Jan-20 13:10 334 9 gusting 13 -4.4
2020-Jan-20 13:05 330 7 gusting 14 -4.4
2020-Jan-20 13:00 333 7 gusting 13 -4.4
2020-Jan-20 12:55 343 5 gusting 13 -4.4
2020-Jan-20 12:50 340 5 gusting 10 -5.0
2020-Jan-20 12:45 344 4 gusting 12 -5.0
2020-Jan-20 12:40 008 6 gusting 10 -5.0
2020-Jan-20 12:35 342 8 gusting 10 -5.6
2020-Jan-20 12:30 354 6 gusting 10 -5.6
2020-Jan-20 12:25 337 9 gusting 11 -5.6
2020-Jan-20 12:20 318 4 gusting 10 -5.6
2020-Jan-20 12:15 333 9 gusting 12 -5.6
2020-Jan-20 12:10 332 10 gusting 12 -5.6
2020-Jan-20 12:05 350 7 gusting 12 -5.0
2020-Jan-20 12:00 345 6 gusting 13 -5.6
2020-Jan-20 11:55 345 6 gusting 11 -5.6
2020-Jan-20 11:50 327 7 gusting 11 -5.6
2020-Jan-20 11:45 355 7 gusting 15 -5.0
2020-Jan-20 11:40 346 8 gusting 13 -5.0
2020-Jan-20 11:35 -5.6
2020-Jan-20 11:30 329 6 gusting 13 -5.0
2020-Jan-20 11:25 336 13 gusting 14 -5.0
2020-Jan-20 11:20 010 7 gusting 13 -5.0
2020-Jan-20 11:15 320 9 gusting 13 -5.0
2020-Jan-20 11:10 340 9 gusting 15 -5.0
2020-Jan-20 11:05 335 9 gusting 18 -5.0
2020-Jan-20 11:00 347 7 gusting 15 -5.0
2020-Jan-20 10:55 339 12 gusting 16 -5.0
2020-Jan-20 10:50 335 6 gusting 16 -5.0
2020-Jan-20 10:45 333 9 gusting 13 -5.0
2020-Jan-20 10:40 352 11 gusting 19 -5.0
2020-Jan-20 10:35 319 10 gusting 18 -5.0
2020-Jan-20 10:30 333 11 gusting 19 -5.0
2020-Jan-20 10:25 348 14 gusting 20 -5.0
2020-Jan-20 10:20 344 9 gusting 17 -5.0
2020-Jan-20 10:15 336 13 gusting 14 -5.0
2020-Jan-20 10:10 336 10 gusting 19 -4.4
2020-Jan-20 10:05 -4.4
2020-Jan-20 10:00 346 18 gusting 21 -4.4
2020-Jan-20 09:55 334 15 gusting 21 -4.4
2020-Jan-20 09:50 355 6 gusting 17 -4.4
2020-Jan-20 09:45 346 10 gusting 20 -3.9
2020-Jan-20 09:40 326 10 gusting 19 -3.9
2020-Jan-20 09:35 342 15 gusting 17 -3.9
2020-Jan-20 09:30 005 8 gusting 17 -3.9
2020-Jan-20 09:25 352 11 gusting 17 -3.9
2020-Jan-20 09:20 332 11 gusting 19 -3.9
2020-Jan-20 09:15 322 15 gusting 15 -3.9
2020-Jan-20 09:10 330 6 gusting 14 -3.9
2020-Jan-20 09:05 317 10 gusting 13 -3.9
2020-Jan-20 09:00 319 10 gusting 13 -3.9
2020-Jan-20 08:55 309 6 gusting 13 -4.4
2020-Jan-20 08:50 308 12 gusting 14 -3.9
2020-Jan-20 08:45 315 6 gusting 11 -4.4
2020-Jan-20 08:40 297 7 gusting 11 -4.4
2020-Jan-20 08:35 302 6 gusting 12 -4.4
2020-Jan-20 08:30 330 6 gusting 11 -4.4
2020-Jan-20 08:25 329 7 gusting 11 -4.4
2020-Jan-20 08:20 302 6 gusting 13 -4.4
2020-Jan-20 08:15 318 13 gusting 13 -4.4
2020-Jan-20 08:10 329 5 gusting 13 -3.9
2020-Jan-20 08:05 308 6 gusting 13 -3.9
2020-Jan-20 08:00 305 7 gusting 13 -3.9
2020-Jan-20 07:55 287 9 gusting 16 -3.9
2020-Jan-20 07:50 310 7 gusting 15 -3.9
2020-Jan-20 07:45 319 8 gusting 13 -3.9
2020-Jan-20 07:40 313 8 gusting 14 -3.9
2020-Jan-20 07:35 308 11 gusting 15 -3.9
2020-Jan-20 07:30 284 9 gusting 13 -3.9
2020-Jan-20 07:25 311 7 gusting 13 -3.9
2020-Jan-20 07:20 311 5 gusting 16 -3.9
2020-Jan-20 07:15 298 10 gusting 16 -3.9
2020-Jan-20 07:10 311 15 gusting 15 -3.9
2020-Jan-20 07:05 331 12 gusting 17 -3.9
2020-Jan-20 07:00 305 9 gusting 15 -3.9
2020-Jan-20 06:55 332 14 gusting 15 -3.9
2020-Jan-20 06:50 333 8 gusting 15 -3.9
2020-Jan-20 06:45 314 9 gusting 17 -3.9
2020-Jan-20 06:40 344 15 gusting 17 -3.9
2020-Jan-20 06:35 320 6 gusting 19 -3.3
2020-Jan-20 06:30 321 13 gusting 18 -3.9
2020-Jan-20 06:25 327 11 gusting 13 -3.9
2020-Jan-20 06:20 324 4 gusting 14 -3.3
2020-Jan-20 06:15 302 6 gusting 14 -3.3
2020-Jan-20 06:10 307 9 gusting 14 -3.3
2020-Jan-20 06:05 312 5 gusting 13 -3.3
2020-Jan-20 06:00 321 5 gusting 13 -3.3
2020-Jan-20 05:55 312 8 gusting 15 -3.3
2020-Jan-20 05:50 312 7 gusting 15 -3.3
2020-Jan-20 05:45 320 8 gusting 15 -3.3
2020-Jan-20 05:40 310 10 gusting 16 -3.3
2020-Jan-20 05:35 295 7 gusting 13 -3.3
2020-Jan-20 05:30 314 7 gusting 9 -3.3
2020-Jan-20 05:25 303 4 gusting 14 -3.3
2020-Jan-20 05:20 284 6 gusting 8 -3.3
2020-Jan-20 05:15 299 6 gusting 11 -3.3
2020-Jan-20 05:10 288 7 gusting 13 -2.8
2020-Jan-20 05:05 297 6 gusting 13 -2.8
2020-Jan-20 05:00 330 13 gusting 18 -2.8
2020-Jan-20 04:55 337 13 gusting 17 -2.8
2020-Jan-20 04:50 313 7 gusting 18 -2.8
2020-Jan-20 04:45 312 11 gusting 18 -2.8
2020-Jan-20 04:40 315 15 gusting 18 -2.8
2020-Jan-20 04:35 280 7 gusting 16 -2.8
2020-Jan-20 04:30 325 14 gusting 14 -2.8
2020-Jan-20 04:25 310 7 gusting 17 -2.8
2020-Jan-20 04:20 309 6 gusting 13 -2.8
2020-Jan-20 04:15 307 11 gusting 15 -2.8
2020-Jan-20 04:10 295 11 gusting 13 -2.8
2020-Jan-20 04:05 320 8 gusting 13 -2.2
2020-Jan-20 04:00 295 8 gusting 15 -2.2
2020-Jan-20 03:55 305 7 gusting 10 -2.8
2020-Jan-20 03:50 302 6 gusting 10 -2.8
2020-Jan-20 03:45 300 5 gusting 8 -2.2
2020-Jan-20 03:40 304 5 gusting 13 -2.2
2020-Jan-20 03:35 299 10 gusting 12 -2.8
2020-Jan-20 03:30 286 6 gusting 13 -2.2
2020-Jan-20 03:25 331 8 gusting 13 -2.2
2020-Jan-20 03:20 314 8 gusting 9 -2.2
2020-Jan-20 03:15 327 9 gusting 15 -2.2
2020-Jan-20 03:10 329 8 gusting 13 -2.2
2020-Jan-20 03:05 308 7 gusting 18 -2.2
2020-Jan-20 03:00 304 9 gusting 17 -2.2
2020-Jan-20 02:55 332 11 gusting 15 -2.2
2020-Jan-20 02:50 291 13 gusting 17 -1.7
2020-Jan-20 02:45 336 13 gusting 19 -1.7
2020-Jan-20 02:40 303 10 gusting 13 -2.2
2020-Jan-20 02:35 324 6 gusting 14 -1.7
2020-Jan-20 02:30 322 13 gusting 16 -1.7
2020-Jan-20 02:25 301 12 gusting 18 -1.7
2020-Jan-20 02:20 288 13 gusting 19 -1.7
2020-Jan-20 02:15 304 8 gusting 10 -1.7
2020-Jan-20 02:10 321 6 gusting 13 -1.7
2020-Jan-20 02:05 322 12 gusting 15 -1.7
2020-Jan-20 02:00 301 13 gusting 17 -1.7
2020-Jan-20 01:55 316 9 gusting 16 -1.7
2020-Jan-20 01:50 325 6 gusting 10 -1.1
2020-Jan-20 01:45 303 10 gusting 20 -1.1
2020-Jan-20 01:40 310 13 gusting 18 -1.1
2020-Jan-20 01:35 275 9 gusting 15 -1.1
2020-Jan-20 01:30 291 13 gusting 22 -1.1
2020-Jan-20 01:25 316 14 gusting 18 -1.1
2020-Jan-20 01:20 307 14 gusting 19 -1.1
2020-Jan-20 01:15 305 13 gusting 18 -1.1
2020-Jan-20 01:10 326 8 gusting 18 -1.1
2020-Jan-20 01:05 320 13 gusting 21 -1.1
2020-Jan-20 01:00 304 7 gusting 14 -1.1
2020-Jan-20 00:55 271 6 gusting 15 -1.1
2020-Jan-20 00:50 327 10 gusting 15 -0.6
2020-Jan-20 00:45 324 6 gusting 15 -0.6
2020-Jan-20 00:40 313 9 gusting 19 -0.6
2020-Jan-20 00:35 326 17 gusting 25 -0.6
2020-Jan-20 00:30 304 14 gusting 23 -0.6
2020-Jan-20 00:25 318 7 gusting 23 -0.6
2020-Jan-20 00:20 332 14 gusting 27 -0.0
2020-Jan-20 00:15 307 19 gusting 24 -0.0
2020-Jan-20 00:10 292 11 gusting 16 -0.0
2020-Jan-20 00:05 308 13 gusting 19 -0.0
2020-Jan-20 00:00 311 10 gusting 16 -0.0
2020-Jan-19 23:55 318 13 gusting 17 -0.0
2020-Jan-19 23:50 323 10 gusting 24 -0.0
2020-Jan-19 23:45 305 16 gusting 22 0.6
2020-Jan-19 23:40 302 19 gusting 24 0.6
2020-Jan-19 23:35 311 7 gusting 13 0.6
2020-Jan-19 23:30 293 9 gusting 15 0.6
2020-Jan-19 23:25 315 8 gusting 13 0.6
2020-Jan-19 23:20 322 11 gusting 18 1.1
2020-Jan-19 23:15 318 11 gusting 15 0.6
2020-Jan-19 23:10 318 7 gusting 17 0.6
2020-Jan-19 23:05 317 13 gusting 19 1.1
2020-Jan-19 23:00 324 10 gusting 15 1.1
2020-Jan-19 22:55 294 7 gusting 16 1.1
2020-Jan-19 22:50 318 8 gusting 16 1.1
2020-Jan-19 22:45 317 9 gusting 19 1.1
2020-Jan-19 22:40 311 6 gusting 13 1.1
2020-Jan-19 22:35 306 13 gusting 20 1.7
2020-Jan-19 22:30 313 20 gusting 24 1.7
2020-Jan-19 22:25 321 14 gusting 21 1.7
2020-Jan-19 22:20 321 17 gusting 20 1.7
2020-Jan-19 22:15 336 8 gusting 18 1.7
2020-Jan-19 22:10 338 11 gusting 20 2.2
2020-Jan-19 22:05 307 17 gusting 21 2.2
2020-Jan-19 22:00 322 10 gusting 15 2.8
2020-Jan-19 21:55 278 9 gusting 19 2.8
2020-Jan-19 21:50 307 13 gusting 18 2.8
2020-Jan-19 21:45 317 9 gusting 15 2.8
2020-Jan-19 21:40 311 13 gusting 16 2.8
2020-Jan-19 21:35 325 12 gusting 19 2.8
2020-Jan-19 21:30 295 11 gusting 19 2.8
2020-Jan-19 21:25 312 4 gusting 16 3.3
2020-Jan-19 21:20 310 13 gusting 21 3.3
2020-Jan-19 21:15 329 20 gusting 21 3.3
2020-Jan-19 21:10 331 9 gusting 19 3.9
2020-Jan-19 21:05 343 10 gusting 19 3.9
2020-Jan-19 21:00 328 14 gusting 20 4.4
2020-Jan-19 20:55 330 13 gusting 21 3.9
2020-Jan-19 20:50 332 19 gusting 22 4.4
2020-Jan-19 20:45 310 10 gusting 16 4.4
2020-Jan-19 20:40 288 14 gusting 19 4.4
2020-Jan-19 20:35 316 14 gusting 19 4.4
2020-Jan-19 20:30 296 13 gusting 20 4.4
2020-Jan-19 20:25 291 17 gusting 22 3.9
2020-Jan-19 20:20 299 19 gusting 26 3.9
2020-Jan-19 20:15 308 18 gusting 24 4.4
2020-Jan-19 20:10 299 9 gusting 19 4.4
2020-Jan-19 20:05 300 11 gusting 26 4.4
2020-Jan-19 20:00 318 13 gusting 19 5.0
2020-Jan-19 19:55 333 13 gusting 22 4.4
2020-Jan-19 19:50 317 14 gusting 26 4.4
2020-Jan-19 19:45 298 19 gusting 26 5.0
2020-Jan-19 19:40 275 13 gusting 21 5.6
2020-Jan-19 19:35 296 13 gusting 22 5.0
2020-Jan-19 19:30 292 19 gusting 24 6.1
2020-Jan-19 19:25 334 16 gusting 19 6.7
2020-Jan-19 19:20 298 7 gusting 19 6.1
2020-Jan-19 19:15 284 8 gusting 19 5.6
2020-Jan-19 19:10 287 8 gusting 19 5.6
2020-Jan-19 19:05 307 10 gusting 22 5.6
2020-Jan-19 19:00 288 10 gusting 19 5.6
2020-Jan-19 18:55 299 13 gusting 21 5.6
2020-Jan-19 18:50 279 19 gusting 19 5.0
2020-Jan-19 18:45 314 12 gusting 21 5.0
2020-Jan-19 18:40 297 15 gusting 20 5.0
2020-Jan-19 18:35 323 18 gusting 25 5.0
2020-Jan-19 18:30 310 16 gusting 20 5.6
2020-Jan-19 18:25 326 9 gusting 18 6.7
2020-Jan-19 18:20 329 6 gusting 19 6.7
2020-Jan-19 18:15 309 10 gusting 15 7.8
2020-Jan-19 18:10 329 13 gusting 16 7.2
2020-Jan-19 18:05 327 8 gusting 22 6.7
2020-Jan-19 18:00 306 13 gusting 23 6.7
2020-Jan-19 17:55 280 11 gusting 23 6.1
2020-Jan-19 17:50 324 10 gusting 18 6.1
2020-Jan-19 17:45 338 9 gusting 19 6.1
2020-Jan-19 17:40 295 17 gusting 24 6.1
2020-Jan-19 17:35 307 14 gusting 19 6.1
2020-Jan-19 17:30 320 14 gusting 23 6.1
2020-Jan-19 17:25 300 16 gusting 21 6.7
2020-Jan-19 17:20 310 17 gusting 22 6.7
2020-Jan-19 17:15 330 8 gusting 19 6.7
2020-Jan-19 17:10 297 12 gusting 27 6.1
2020-Jan-19 17:05 330 17 gusting 20 6.1
2020-Jan-19 17:00 301 15 gusting 20 6.7
2020-Jan-19 16:55 308 15 gusting 18 7.2
2020-Jan-19 16:50 320 17 gusting 21 6.7
2020-Jan-19 16:45 320 16 gusting 22 6.7
2020-Jan-19 16:40 318 8 gusting 20 6.7
2020-Jan-19 16:35 339 13 gusting 23 6.7
2020-Jan-19 16:30 327 15 gusting 19 7.8
2020-Jan-19 16:25 326 13 gusting 18 7.2
2020-Jan-19 16:20 340 10 gusting 12 6.7
2020-Jan-19 16:15 314 7 gusting 12 5.6
2020-Jan-19 16:10 271 6 gusting 13 5.6
2020-Jan-19 16:05 302 6 gusting 13 5.6
2020-Jan-19 16:00 308 10 gusting 13 5.6
2020-Jan-19 15:55 286 8 gusting 13 6.1
2020-Jan-19 15:50 289 7 gusting 14 6.1
2020-Jan-19 15:45 310 5 gusting 12 6.1
2020-Jan-19 15:40 317 7 gusting 13 5.6
2020-Jan-19 15:35 325 5 gusting 17 5.6
2020-Jan-19 15:30 327 6 gusting 11 6.1
2020-Jan-19 15:25 300 8 gusting 13 6.1
2020-Jan-19 15:20 302 7 gusting 14 6.1
2020-Jan-19 15:15 293 6 gusting 14 6.1
2020-Jan-19 15:10 326 11 gusting 15 6.1
2020-Jan-19 15:05 309 10 gusting 15 6.1
2020-Jan-19 15:00 306 5 gusting 13 6.1
2020-Jan-19 14:55 333 6 gusting 13 6.1
2020-Jan-19 14:50 279 13 gusting 13 6.1
2020-Jan-19 14:45 300 7 gusting 8 6.1
2020-Jan-19 14:40 310 4 gusting 10 6.1
2020-Jan-19 14:35 315 4 gusting 8 6.1
2020-Jan-19 14:30 313 6 gusting 8 6.1
2020-Jan-19 14:25 313 4 gusting 8 6.1
2020-Jan-19 14:20 292 3 gusting 8 6.1
2020-Jan-19 14:15 292 4 gusting 8 6.1
2020-Jan-19 14:10 288 5 gusting 8 5.6
2020-Jan-19 14:05 262 5 gusting 6 5.6
2020-Jan-19 14:00 264 5 gusting 6 5.6
2020-Jan-19 13:55 287 5 gusting 6 5.6
2020-Jan-19 13:50 304 4 gusting 6 5.6
2020-Jan-19 13:45 262 6 gusting 6 5.6
2020-Jan-19 13:40 254 6 gusting 7 5.6
2020-Jan-19 13:35 297 6 gusting 6 5.6
2020-Jan-19 13:30 278 4 gusting 5 5.6
2020-Jan-19 13:25 288 2 gusting 4 5.6
2020-Jan-19 13:20 272 3 gusting 4 5.6
2020-Jan-19 13:15 268 2 gusting 4 5.6
2020-Jan-19 13:10 261 2 gusting 4 5.6
2020-Jan-19 13:05 240 4 gusting 5 5.6
2020-Jan-19 13:00 248 3 gusting 5 5.0
2020-Jan-19 12:55 290 2 gusting 6 5.0
2020-Jan-19 12:50 288 4 gusting 6 5.0
2020-Jan-19 12:45 330 3 gusting 5 5.0
2020-Jan-19 12:40 305 2 gusting 5 5.0
2020-Jan-19 12:35 290 1 gusting 5 5.0
2020-Jan-19 12:30 288 5 gusting 5 5.0
2020-Jan-19 12:25 303 2 gusting 6 5.0
2020-Jan-19 12:20 306 1 gusting 5 5.6
2020-Jan-19 12:15 310 4 gusting 6 5.6
2020-Jan-19 12:10 302 2 gusting 7 5.6
2020-Jan-19 12:05 303 4 gusting 7 5.6
2020-Jan-19 12:00 281 3 gusting 7 5.6
2020-Jan-19 11:55 295 4 gusting 6 5.6
2020-Jan-19 11:50 264 4 gusting 6 5.6
2020-Jan-19 11:45 310 2 gusting 8 5.6
2020-Jan-19 11:40 272 3 gusting 7 5.6
2020-Jan-19 11:35 289 6 gusting 7 5.6
2020-Jan-19 11:30 278 5 gusting 9 5.6
2020-Jan-19 11:25 250 4 gusting 7 5.6
2020-Jan-19 11:20 282 4 gusting 7 5.6
2020-Jan-19 11:15 253 5 gusting 9 5.6
2020-Jan-19 11:10 295 5 gusting 8 5.6
2020-Jan-19 11:05 274 3 gusting 6 5.6
2020-Jan-19 11:00 298 4 gusting 8 5.6
2020-Jan-19 10:55 266 5 gusting 8 5.6
2020-Jan-19 10:50 251 5 gusting 8 5.6
2020-Jan-19 10:45 286 5 gusting 9 5.6
2020-Jan-19 10:40 295 3 gusting 11 6.1
2020-Jan-19 10:35 296 6 gusting 11 6.1
2020-Jan-19 10:30 292 5 gusting 10 6.1
2020-Jan-19 10:25 303 6 gusting 11 6.1
2020-Jan-19 10:20 272 12 gusting 12 6.1
2020-Jan-19 10:15 289 6 gusting 10 6.1
2020-Jan-19 10:10 272 6 gusting 8 6.1
2020-Jan-19 10:05 273 4 gusting 10 6.1
2020-Jan-19 10:00 268 5 gusting 9 6.1
2020-Jan-19 09:55 270 5 gusting 8 6.1
2020-Jan-19 09:50 283 6 gusting 9 6.1
2020-Jan-19 09:45 296 3 gusting 9 6.1
2020-Jan-19 09:40 288 8 gusting 10 6.1
2020-Jan-19 09:35 279 6 gusting 7 6.1
2020-Jan-19 09:30 279 5 gusting 9 6.1
2020-Jan-19 09:25 285 5 gusting 9 6.1
2020-Jan-19 09:20 277 6 gusting 9 6.1
2020-Jan-19 09:15 251 7 gusting 10 6.1
2020-Jan-19 09:10 285 6 gusting 10 6.1
2020-Jan-19 09:05 268 9 gusting 11 6.1
2020-Jan-19 09:00 291 7 gusting 12 6.7
2020-Jan-19 08:55 249 9 gusting 13 6.1
2020-Jan-19 08:50 277 7 gusting 13 6.1
2020-Jan-19 08:45 290 6 gusting 11 6.1
2020-Jan-19 08:40 258 8 gusting 13 6.1
2020-Jan-19 08:35 247 8 gusting 12 6.1
2020-Jan-19 08:30 282 10 gusting 13 6.7
2020-Jan-19 08:25 248 5 gusting 13 6.1
2020-Jan-19 08:20 238 10 gusting 14 6.1
2020-Jan-19 08:15 243 11 gusting 14 6.1
2020-Jan-19 08:10 227 15 gusting 17 6.1
2020-Jan-19 08:05 218 12 gusting 15 6.7
2020-Jan-19 08:00 248 5 gusting 13 6.1
2020-Jan-19 07:55 247 11 gusting 17 6.1
2020-Jan-19 07:50 252 12 gusting 15 6.1
2020-Jan-19 07:45 237 10 gusting 14 6.1
2020-Jan-19 07:40 232 8 gusting 14 6.1
2020-Jan-19 07:35 235 6 gusting 16 6.1
2020-Jan-19 07:30 258 6 gusting 15 6.1
2020-Jan-19 07:25 221 13 gusting 14 6.1
2020-Jan-19 07:20 261 8 gusting 16 6.1
2020-Jan-19 07:15 252 7 gusting 14 6.1
2020-Jan-19 07:10 273 12 gusting 15 6.1
2020-Jan-19 07:05 221 12 gusting 17 6.1
2020-Jan-19 07:00 255 9 gusting 13 6.1
2020-Jan-19 06:55 243 10 gusting 14 6.1
2020-Jan-19 06:50 242 9 gusting 18 6.1
2020-Jan-19 06:45 246 8 gusting 18 6.1
2020-Jan-19 06:40 241 13 gusting 19 6.1
2020-Jan-19 06:35 230 8 gusting 16 6.1
2020-Jan-19 06:30 235 10 gusting 18 6.1
2020-Jan-19 06:25 228 8 gusting 17 6.1
2020-Jan-19 06:20 243 8 gusting 18 6.1
2020-Jan-19 06:15 232 14 gusting 19 6.1
2020-Jan-19 06:10 252 17 gusting 19 6.1
2020-Jan-19 06:05 236 9 gusting 19 6.1
2020-Jan-19 06:00 260 13 gusting 17 6.1